Theta_e
337 339 340 340 342 340 341 339 339 338 337 338 338 337 338 340 339 340 339 339 338 338 337 337 337 337 336 335 335 335 336 335 334 334 334 334 334 335 334 333 333 334 333 333 332 330 327 327 325 325 323 329
335 337 339 339 340 341 341 340 341 340 342 341 342 341 341 340 340 340 340 339 338 337 337 337 337 336 335 335 335 335 334 334 333 333 334 335 334 334 334 333 333 333 333 331 330 329 328 326 324 325 322 329
339 332 336 337 337 339 339 340 339 339 338 338 338 336 335 334 332 332 332 334 335 335 336 336 336 336 336 335 335 334 334 333 333 332 333 334 334 334 334 334 333 332 331 329 328 327 325 323 322 317 324 329
338 334 331 334 335 336 337 337 337 335 333 331 331 330 329 328 332 330 330 326 332 328 328 327 331 334 336 334 334 334 334 332 332 332 333 333 333 333 333 331 329 327 327 327 325 323 322 322 317 331 328 329
339 342 330 332 331 332 333 334 333 329 323 322 321 323 322 327 338 338 337 337 336 326 330 322 324 331 335 334 334 333 333 332 331 331 332 333 333 331 328 324 323 324 325 324 323 320 318 315 330 327 328 328
339 341 335 338 340 341 337 331 328 333 338 334 334 320 331 338 336 336 337 336 333 335 333 329 322 327 331 333 333 333 333 332 332 332 332 332 333 330 325 318 333 329 319 319 320 318 311 330 328 328 328 327
339 338 337 337 337 339 334 338 338 339 338 339 338 337 338 336 335 335 335 334 332 332 322 327 323 326 328 329 329 330 330 330 330 330 330 330 329 326 320 333 332 331 332 331 314 316 330 327 327 327 327 326
338 337 337 335 335 335 335 336 337 338 338 339 338 335 336 334 334 334 333 326 325 325 330 327 321 323 325 325 324 324 327 324 324 324 325 326 324 325 328 332 330 330 330 330 330 330 327 327 328 328 327 326
337 337 336 336 336 335 335 336 336 336 337 337 336 334 335 334 332 333 332 332 331 332 332 331 331 330 331 332 332 322 332 331 330 326 330 329 326 331 331 330 330 330 330 329 329 329 328 327 328 328 328 326
337 337 335 335 335 335 335 335 334 333 333 335 335 334 333 332 331 331 331 330 330 329 330 330 330 330 331 331 330 329 330 330 328 329 328 329 329 330 330 330 330 330 328 329 328 328 329 328 327 327 327 327
337 337 336 335 336 334 334 334 333 332 332 332 334 334 333 331 331 330 330 329 329 327 328 329 329 328 328 328 328 328 328 328 328 328 327 326 327 329 329 329 330 329 329 329 329 328 329 329 328 327 328 326
336 337 336 336 335 334 334 333 332 332 332 333 332 334 332 331 331 330 329 329 328 328 328 327 329 328 327 326 326 326 326 326 326 327 327 327 327 327 328 328 329 329 328 329 329 329 329 329 328 327 327 326
335 336 336 335 334 334 331 333 333 333 333 332 332 333 333 333 331 330 329 328 327 328 327 328 327 326 326 326 326 325 324 325 326 327 327 325 325 326 327 327 328 328 329 329 328 328 329 329 327 327 327 327
334 335 335 335 334 334 333 333 334 334 333 332 332 331 332 332 331 330 328 328 328 327 327 327 327 325 325 325 325 324 324 324 324 324 326 325 325 326 326 327 328 327 328 328 329 329 328 328 327 327 327 326
333 334 334 335 336 335 333 333 333 333 332 332 331 331 331 331 331 330 329 329 328 327 327 327 325 325 325 324 325 325 324 325 324 323 323 325 323 324 325 326 328 327 327 328 328 329 328 328 328 327 327 326
334 333 334 334 335 334 334 333 332 332 332 330 331 331 331 331 331 330 330 330 329 327 327 326 325 325 325 325 326 326 325 324 323 322 322 325 326 327 327 327 327 328 327 327 327 328 328 328 327 327 327 326
334 334 333 334 334 334 334 333 332 331 331 331 332 331 330 330 330 329 329 329 328 327 327 326 326 325 326 327 328 328 326 325 326 325 322 322 325 324 326 327 327 329 328 327 326 327 328 327 327 328 328 327
334 333 333 333 333 333 334 332 331 330 331 331 330 330 330 329 330 329 329 329 329 328 327 326 326 326 327 328 330 329 327 325 326 325 323 321 322 321 324 325 327 326 326 327 327 327 328 327 327 327 328 327
333 334 333 333 333 333 333 332 331 331 330 330 330 330 329 329 328 329 330 329 328 327 327 326 326 327 327 328 329 328 328 328 327 326 323 321 320 322 323 325 327 326 326 326 326 327 328 327 328 328 327 328
333 333 333 333 329 332 333 332 331 331 330 329 329 329 329 329 328 328 330 330 329 327 327 326 327 327 328 328 328 329 329 328 326 326 325 323 322 320 322 325 326 326 326 327 326 328 327 327 327 327 327 327
333 333 333 333 333 332 332 331 331 331 331 329 328 328 327 328 328 328 329 330 329 328 328 327 327 327 327 328 328 328 328 326 326 326 326 323 323 322 321 324 325 326 326 326 327 327 327 328 327 326 327 327
332 332 333 333 332 331 331 331 331 331 330 329 328 328 327 328 329 328 329 330 329 329 328 328 327 327 327 328 328 327 327 326 326 327 327 323 324 323 322 324 325 325 326 326 327 326 326 327 327 326 327 327
332 332 332 332 332 331 330 330 330 330 329 329 329 328 328 329 329 328 329 329 329 328 328 328 328 327 327 327 326 326 325 325 325 325 326 325 324 325 324 324 326 326 327 327 326 326 326 326 326 326 326 327
330 330 329 328 330 329 328 328 328 329 329 329 328 328 328 329 330 331 329 329 329 328 328 328 327 327 327 326 325 325 324 324 324 324 325 325 325 325 325 326 326 327 326 325 325 324 325 325 325 325 325 326
329 327 327 327 327 326 328 327 328 328 328 328 329 329 328 329 330 331 331 329 329 328 326 328 328 327 326 326 325 324 324 325 326 326 326 325 326 325 324 325 326 326 326 323 322 323 323 323 324 324 324 324
330 330 329 327 327 327 327 327 325 326 327 328 329 329 329 329 330 331 330 328 329 329 329 328 327 327 326 326 325 325 325 326 324 326 326 326 324 325 323 324 326 325 324 320 319 317 318 320 322 322 322 322
330 331 331 330 330 329 328 329 329 328 328 329 328 329 329 329 329 330 330 329 328 329 329 328 328 327 327 326 325 324 324 325 325 324 324 325 323 321 323 324 326 326 324 321 322 321 318 315 315 318 318 321
331 332 332 332 332 332 330 329 329 329 329 329 328 328 329 329 329 329 329 330 330 328 329 329 328 328 327 327 327 325 324 324 323 324 324 325 324 323 320 320 322 325 325 324 321 313 313 315 314 310 315 317
329 330 330 331 331 330 329 329 328 326 325 327 326 327 328 328 329 329 329 330 330 328 328 329 329 328 328 328 327 326 325 324 324 324 325 325 323 323 321 321 322 323 324 324 325 321 315 313 310 311 315 317
328 328 328 327 326 324 323 323 323 322 323 325 325 325 328 329 329 329 329 330 330 329 328 329 329 329 328 328 327 327 326 325 325 325 325 325 324 323 324 322 323 322 321 323 325 325 324 321 315 314 317 314
327 327 327 327 326 326 325 324 325 327 327 327 328 329 328 328 329 329 329 329 330 330 329 328 329 329 328 328 328 327 326 325 325 325 326 326 325 324 324 324 321 322 321 320 322 324 325 325 324 323 318 313
Wind_Speed
8 7 5 5 6 9 7 6 9 8 7 6 6 4 7 8 6 8 8 8 9 7 8 9 8 9 9 9 8 8 8 8 7 7 7 8 8 8 8 8 7 7 6 5 6 5 4 5 5 4 8 4
7 8 7 5 6 7 7 7 7 6 6 8 8 8 10 9 7 7 7 5 6 7 7 8 8 8 8 9 8 8 7 7 7 6 7 7 8 8 7 7 7 6 5 6 5 4 4 3 4 3 7 5
8 7 6 6 7 7 8 8 8 8 9 9 10 10 10 10 10 10 9 8 9 7 6 6 7 5 8 8 8 8 7 6 6 6 7 7 8 8 7 6 6 5 5 5 5 4 3 3 2 2 6 5
9 7 6 6 7 8 8 9 9 10 9 10 10 10 10 10 8 7 6 6 7 8 7 7 3 5 8 8 7 7 7 6 5 6 5 5 5 6 7 6 6 5 5 5 5 5 3 1 4 3 4 3
8 7 7 5 6 7 8 9 10 10 10 8 8 8 8 7 6 6 5 5 5 5 5 4 4 2 6 8 7 7 6 5 4 4 4 4 4 5 5 6 6 6 5 5 5 5 2 3 5 5 3 4
7 6 7 8 7 7 7 7 8 8 7 6 5 6 5 5 5 4 4 4 5 4 5 5 4 5 6 6 5 7 6 5 3 2 3 3 4 4 4 1 2 4 4 5 4 3 2 4 3 2 4 4
8 9 8 8 8 6 7 8 8 7 7 7 6 6 5 5 5 5 4 4 4 4 3 4 3 4 5 6 5 5 3 2 3 1 1 4 3 4 2 2 1 1 2 3 3 3 3 3 3 4 4 3
9 9 8 8 8 8 8 8 8 8 7 5 6 7 6 5 6 6 5 5 7 7 5 4 3 3 5 5 4 4 3 3 2 1 1 1 3 3 2 1 1 1 1 1 1 0 2 2 3 2 3 3
10 10 9 8 8 8 7 7 7 8 8 7 8 8 5 5 6 6 5 6 5 6 5 5 5 5 5 5 4 3 4 2 2 3 2 2 3 2 2 1 1 1 1 1 1 1 2 2 2 2 2 3
9 9 10 9 9 9 8 9 8 8 8 8 9 7 7 6 6 6 6 6 6 6 5 6 6 5 5 5 5 3 4 3 3 2 2 3 3 3 2 1 0 0 1 1 1 1 1 2 1 2 2 1
9 9 10 9 9 10 9 9 9 9 8 8 9 8 7 7 7 7 6 6 6 6 5 6 6 5 5 5 4 3 3 3 3 2 3 4 4 3 2 2 2 1 1 1 2 1 1 1 2 1 1 1
10 10 10 9 7 9 9 9 10 9 9 8 8 8 8 8 9 8 8 8 7 7 6 7 6 6 4 4 4 4 3 4 3 3 3 3 4 3 3 3 3 2 2 2 2 1 1 1 1 1 1 1
11 10 10 10 9 11 9 9 9 9 9 9 9 10 10 8 9 9 9 9 8 8 7 7 7 6 6 4 3 3 4 4 4 4 4 4 4 5 4 4 4 3 3 3 2 2 2 2 1 2 2 2
11 11 11 11 10 10 8 11 10 10 9 9 9 9 10 10 9 8 8 8 8 8 7 7 6 7 6 4 3 3 4 4 4 4 4 4 4 4 4 4 4 3 3 3 3 4 3 3 3 3 3 2
12 11 11 10 10 10 10 10 10 9 9 9 10 9 10 11 11 9 9 7 7 7 7 6 6 6 5 4 4 3 4 3 3 3 4 4 4 5 5 5 4 4 4 4 4 3 4 4 3 3 3 4
11 12 11 11 9 10 10 11 10 10 10 10 10 10 10 11 10 11 9 9 8 8 7 7 6 7 5 4 4 4 4 3 3 3 3 3 3 3 4 4 5 4 4 4 4 4 4 3 4 4 4 5
12 12 12 11 12 11 7 10 10 10 10 10 10 10 10 10 11 10 10 9 10 8 8 8 7 7 6 5 5 4 4 3 3 3 4 4 4 4 4 4 5 4 5 5 6 5 4 4 5 5 5 6
12 12 12 12 12 11 10 11 10 10 10 9 9 9 9 10 10 10 9 9 9 9 8 8 8 8 7 6 6 4 4 4 4 4 4 5 5 5 6 6 6 6 6 6 6 5 5 5 5 5 5 6
14 12 12 12 12 12 13 11 10 9 9 9 8 8 8 10 10 11 11 10 9 9 9 9 9 9 8 7 6 5 4 4 4 4 5 5 6 6 7 6 7 7 6 6 6 6 5 6 5 5 5 5
14 14 13 11 11 11 12 11 11 10 9 9 8 8 9 10 10 11 12 12 11 10 9 9 9 8 8 8 7 5 5 5 6 5 5 6 6 7 7 7 7 7 7 7 6 6 6 6 6 6 6 6
14 13 13 13 12 13 11 10 11 10 8 8 9 9 9 9 10 12 13 13 12 11 11 10 9 8 9 8 8 7 6 7 6 6 6 6 7 7 7 8 8 7 7 7 7 7 7 6 6 7 7 7
15 14 13 12 12 9 12 13 12 11 10 9 9 10 10 11 12 12 13 13 13 12 12 11 10 10 10 9 9 6 7 8 7 7 7 7 7 7 7 7 8 9 8 7 7 7 7 7 6 7 7 7
13 13 13 11 11 11 12 11 11 11 11 11 10 11 12 12 12 12 13 13 13 12 11 11 11 11 10 10 9 7 8 9 9 9 7 8 7 7 8 7 8 8 7 7 7 7 9 6 6 6 7 6
12 11 12 12 10 10 11 12 11 12 12 12 12 12 12 13 13 13 12 13 13 13 12 11 11 11 11 11 10 9 9 10 9 10 10 9 9 8 7 6 7 9 8 8 9 9 8 7 6 7 7 6
13 13 13 12 14 14 13 12 12 12 13 13 13 13 13 14 13 13 13 12 13 13 12 12 11 11 11 11 11 10 11 11 10 9 9 8 7 9 9 8 9 10 9 9 8 8 9 8 8 8 9 9
12 14 13 13 13 13 12 11 11 13 12 13 13 14 14 14 14 14 13 13 13 13 13 12 12 12 12 12 12 11 10 10 10 10 10 8 7 8 9 9 10 8 7 8 9 8 7 7 7 7 8 9
13 12 12 12 10 11 10 11 12 12 12 12 13 14 15 14 14 14 14 15 14 14 14 14 14 13 12 13 12 11 11 11 12 11 13 12 9 8 8 9 10 9 11 8 8 8 7 8 7 6 6 8
14 12 11 11 9 9 9 8 10 12 13 14 15 16 16 15 15 16 16 16 16 15 15 16 16 13 12 12 12 11 11 11 12 12 11 11 11 10 8 10 11 12 13 10 7 4 7 6 6 8 8 8
13 10 10 10 10 7 11 11 10 11 13 15 15 14 16 18 17 17 17 16 17 16 16 16 16 15 14 11 13 12 11 11 12 12 12 12 11 12 11 10 9 11 13 13 12 9 4 4 4 8 6 3
13 12 11 11 11 13 13 14 13 15 16 14 15 16 14 13 16 16 16 16 17 17 16 16 17 16 15 13 13 14 11 10 11 13 13 13 12 13 13 11 10 10 10 13 14 15 12 8 6 5 4 4
13 13 12 15 15 14 13 13 13 13 12 11 10 9 12 13 14 16 16 16 16 16 17 16 15 16 15 14 14 12 10 11 12 12 13 12 12 12 11 12 11 12 11 9 12 14 15 15 13 11 8 9
Wind_Direction
170 167 148 164 165 166 174 168 151 151 151 154 155 161 145 132 129 119 124 130 128 131 127 122 121 121 119 114 116 113 108 107 116 118 120 124 126 125 123 117 110 104 96 94 89 87 86 64 57 22 317 58
172 166 148 168 179 169 170 156 138 134 96 101 82 78 87 81 76 100 103 105 112 123 117 112 122 124 121 123 121 113 105 107 113 129 135 133 132 132 124 117 107 94 88 74 76 80 83 78 57 29 297 40
169 161 157 167 178 150 145 131 120 109 114 106 92 83 83 90 85 72 68 66 68 69 79 108 122 121 126 126 121 111 112 120 130 142 151 145 139 132 117 105 98 82 66 71 70 65 77 73 57 305 266 34
187 158 160 167 164 157 144 134 122 118 113 113 110 109 112 110 111 101 84 75 82 68 57 37 48 123 136 135 133 130 130 134 143 146 141 136 126 109 106 105 94 91 89 74 63 54 36 53 234 237 20 8
195 152 161 159 157 157 146 137 126 116 113 110 114 122 123 139 153 147 138 151 120 99 76 56 46 46 144 139 138 143 140 138 147 144 136 127 110 94 88 104 100 80 76 67 59 52 34 256 240 30 13 6
199 179 186 194 180 179 154 134 133 143 141 141 134 133 157 179 184 181 167 147 153 145 140 102 65 86 108 122 133 142 141 119 96 117 121 135 79 61 57 122 184 130 90 77 63 54 297 252 30 34 21 7
200 201 198 202 197 190 184 168 171 182 155 178 159 171 183 189 190 192 177 167 162 160 105 129 106 117 121 131 125 138 142 122 107 105 91 31 29 18 343 238 174 134 148 127 126 197 224 14 19 26 16 25
204 207 207 210 206 208 205 203 200 200 183 174 176 192 198 199 191 180 179 146 154 158 172 158 152 133 142 127 129 142 147 129 83 90 135 309 324 259 223 175 192 170 188 205 186 343 356 7 31 359 10 23
208 207 209 211 210 206 207 203 203 206 200 194 198 201 205 186 185 193 193 185 187 203 199 199 201 199 208 209 206 174 237 229 184 208 166 189 214 222 196 196 166 235 225 224 235 330 352 358 19 4 4 19
208 204 211 211 211 210 211 207 208 209 208 203 198 198 206 197 202 203 202 204 207 208 210 210 213 216 219 223 232 207 244 237 242 228 203 207 219 211 195 196 169 254 294 271 265 320 3 334 357 357 5 11
215 211 215 213 209 211 213 213 212 211 214 213 206 202 197 204 206 208 211 211 211 213 213 219 220 219 220 224 229 232 239 240 244 246 221 217 215 211 203 206 209 212 209 256 264 263 249 329 315 329 341 306
218 215 218 213 199 209 216 215 218 219 219 215 215 203 208 211 217 214 219 218 220 221 221 230 229 231 221 225 231 235 236 243 236 230 229 221 216 214 213 216 220 217 215 221 235 254 258 294 302 303 287 278
219 220 218 214 213 213 208 213 217 220 221 222 222 219 215 204 220 223 224 224 225 230 231 233 234 231 237 217 202 201 216 221 230 226 224 219 217 211 216 210 213 225 232 238 237 261 250 253 246 250 253 254
215 218 219 214 212 217 206 218 220 217 221 224 222 224 222 218 219 225 226 224 228 228 234 236 234 239 240 236 198 198 219 208 226 237 224 224 218 213 214 222 221 233 238 243 247 250 257 247 250 252 244 225
222 221 220 218 214 215 211 215 219 217 219 222 225 226 227 226 226 227 229 224 223 230 237 236 236 241 237 231 212 209 231 223 226 239 244 229 220 212 214 217 222 228 244 246 246 236 236 232 238 240 232 216
218 223 223 224 218 216 214 213 215 217 220 220 220 221 223 225 227 230 233 234 232 234 236 239 239 243 230 221 214 208 222 228 230 243 241 235 239 229 222 222 225 228 241 244 249 239 229 220 240 239 231 220
220 222 223 223 223 224 212 214 214 218 220 220 220 219 219 223 228 230 234 235 237 233 236 238 240 240 236 228 221 208 193 205 227 230 227 216 208 214 218 225 229 220 238 244 248 248 237 241 242 247 243 235
220 219 219 221 223 218 213 213 212 218 222 221 222 220 219 222 226 229 232 236 232 231 235 237 237 241 241 235 234 208 183 205 219 231 219 215 203 205 213 218 225 233 236 238 245 245 242 248 251 250 243 241
222 221 221 221 222 222 217 216 211 211 216 222 222 221 219 218 221 225 231 232 234 232 235 236 238 238 241 241 232 220 208 219 228 228 226 213 214 204 210 221 228 235 242 245 244 242 241 243 246 247 248 240
221 224 226 225 223 226 220 218 219 214 212 214 219 219 219 214 219 224 226 230 228 233 233 237 236 233 236 235 235 224 225 231 237 227 223 218 217 212 211 216 224 232 239 241 245 248 248 251 251 255 252 244
221 223 224 225 226 226 223 219 223 217 210 211 215 219 218 214 215 219 224 225 225 230 235 236 237 236 236 233 236 234 228 234 232 229 220 221 212 226 221 215 225 234 236 239 243 245 248 255 256 255 255 245
219 223 225 227 228 218 224 224 224 221 213 210 211 215 219 217 218 220 221 220 220 226 233 236 236 239 237 231 235 230 235 236 227 228 223 224 211 213 224 227 230 235 236 238 244 250 253 255 257 256 251 247
221 225 228 230 228 224 222 223 221 217 214 215 214 216 217 217 220 219 217 215 216 221 225 229 234 238 232 234 239 231 228 228 226 227 224 224 216 207 220 231 232 239 240 239 241 251 255 249 243 250 248 243
219 220 224 225 225 225 221 219 217 216 218 218 217 215 214 218 220 221 218 217 215 217 223 228 231 232 233 233 232 226 223 224 220 218 218 219 221 210 209 223 242 240 239 245 254 256 257 249 240 230 240 233
213 214 219 222 221 221 217 216 215 214 213 215 217 214 214 219 222 224 221 217 215 217 220 227 232 232 229 227 228 224 222 221 222 217 216 216 210 216 219 224 226 233 239 246 250 252 253 253 244 239 238 241
205 210 210 208 216 220 223 220 216 221 219 219 219 218 217 219 222 222 220 215 216 218 219 222 227 228 227 224 223 223 221 219 220 220 218 216 214 209 221 228 224 224 208 228 236 246 254 243 234 222 235 236
210 207 207 207 210 208 218 223 226 228 228 227 227 225 223 222 222 219 218 214 213 219 218 220 224 227 223 222 217 214 215 214 216 217 219 218 218 210 210 230 230 211 204 229 221 240 263 260 266 220 211 228
211 207 206 208 212 206 215 218 219 228 230 231 229 229 225 223 220 218 218 216 215 217 219 218 223 221 217 215 210 207 208 207 212 214 215 212 213 216 206 213 225 219 215 227 204 213 210 246 254 277 251 235
206 202 201 206 218 226 233 235 232 227 230 228 227 227 224 222 217 218 218 219 217 217 220 220 224 224 222 208 217 213 208 209 210 211 212 208 207 208 214 210 212 216 219 221 220 224 172 200 222 240 266 292
197 202 201 196 203 213 219 225 219 220 219 212 214 217 220 221 220 219 219 220 220 219 220 223 225 224 223 220 217 218 212 216 213 210 208 206 207 211 213 222 212 217 209 225 224 225 235 231 254 259 232 216
194 202 206 206 206 209 209 212 217 218 219 214 211 208 213 218 219 220 221 223 223 223 221 224 223 222 220 223 224 214 210 217 216 209 208 206 206 211 208 211 227 222 214 213 230 228 234 240 246 252 249 237